Volver al catálogo

STARLINK-32296

ActivoComunicacionesVLEO
NORAD 61524·PAYLOAD·🇺🇸 United States

Lanzado Oct 15, 2024 desde Cape Canaveral Space Force Station

Loading…

Próximos Pases (próximas 24 horas)

TLE

ActualizadoSource: CelesTrak SupGP

Época: Sep 15, 2026, 02:57 UTC

1 61524C 24183R   26258.12340278  .00064078  00000+0  20598-2 0  2584
2 61524  53.1598 340.8470 0001185  85.2104 123.7051 15.31681611    15

Sigue STARLINK-32296 en tiempo real con AllMySat

Download on the App Store